Погода Байрамалы

Погода Байрамалы : погода сейчас, прогноз погоды и архив. Всё, что Вы хотите узнать о погоде Байрамалы!

Поиск расширенной информации на нашем сайте:

Другие новости

Новости СМИ2

Главная страница сайта

Новости сайта

03.07.2017

Напоминаем, что на нашем специализированном сайте Метеоцентр.Азия вы можете получить высокодетализированные автоматические прогнозы погоды по пунктам России, СНГ и мира в авиационном формате (включающие направление и скорость ветра, видимость, явления погоды, количество и форму облачности, нижнюю и верхнюю границу облачности).

Рекомендуем: Какие вещи нужны для посещения ясельной группы?

Погода Байрамалы - сегодня

Время (UTC), дата Ветер
(°,м/с) 
Видим.   Явления Облачность Т
(°С)
Тd
(°С)
f(%) Тe
(°С)
Pmin
(гПа)
dP
(гПа)
Po
(мм)
O2
(г/м3)
Тmin Tmax R s Состояние
почвы
21 21.11.17 120 (ЮВ) 4000 м    ясно 
+10.6 -5 33 +10  1013.2  -1.4  738  287           
00 22.11.17 140 (ЮВ) 4000 м    ясно 
+11.8 -0.9 41 +12  1011.8  -1.3  737  285           
03 22.11.17 140 (ЮВ) 4000 м    8/0 верхняя 
[Ci]
+11.8 -1.2 40 +11  1011.7  -0.1  737  285           
06 22.11.17 160 (Ю) 4000 м    9/0 верхняя 
[Cs]
+17.4 -10.7 14 +18  1011.4  0.3  738  280  +10.2         
09 22.11.17 180 (Ю) 4000 м    9/0 верхняя 
[Cs]
+23.5 -7.8 12 +24  1008.8  -1.9  736  274           
12 22.11.17 180 (Ю) 0500 м  пыльная буря  10/0 верхняя 
[Cs]
+23.5 -10.7 9 +24  1007.8  -1  735  274           
15 22.11.17 180 (Ю) 4000 м  мгла  10/0 верхняя 
[Cs]
+19 -7.8 15 +20  1008.8  0.5  736  278    +25.8       
18 22.11.17 170 (Ю) 4000 м    10/0 верхняя 
[Cs]
+18.8 -8.2 15 +20  1009.6  0.8  736  278    +25.8       
21 22.11.17 140 (ЮВ) 4000 м    10/0 верхняя 
[Cs]
+18.6 -6.4 18 +20  1008.6  -1  736  278           
00 23.11.17 070 (В) 4000 м    ясно 
+4.8 +2.8 87 +4  1025.1  -0.7  747  295           
03 23.11.17 210 (ЮЗ) 4000 м    3/0 верхняя 
[Ci fib]
+12 -3.3 34 +12  1009.9  0.9  736  284           
06 23.11.17 220 (ЮЗ) 4000 м    ясно 
+19.4 +2.7 33 +20  1010.7  1.4  737  277  +11.6         
09 23.11.17 160 (Ю) 4000 м    ясно 
+24.5 +4.1 27 +25  1009.7  -0.5  737  272           
12 23.11.17 тихо ()   4000 м    8/0 верхняя 
[Ci sp]
+23.8 +7.4 35 +24  1009  -0.6  736  272           
15 23.11.17 тихо ()   4000 м    8/0 верхняя 
[Ci sp]
+15.1 +5.9 54 +15  1010  0.1  737  280    +25.8       
18 23.11.17 тихо ()   4000 м    10/10 600 м 
[Sc]
+16.8 +3.8 42 +17  1010.9  737  279    +25.8       
21 23.11.17 030 (СВ) 4000 м  слаб. дождь  10/10 300 м 
[Ns]
+11.5 +9.7 89 +13  1013.1  1.7  739  284           
00 24.11.17 320 (СЗ) 4000 м  {дождь}  10/10 600 м 
[Sc]
+10.5 +7.4 81 +11  1014.5  1.3  740  286           
03 24.11.17 270 (З) 4000 м    10/10 600 м 
[Sc]
+10.1 +8.2 88 +11  1016.8  2.3  741  287         
06 24.11.17 320 (СЗ) 4000 м    10/10 600 м 
[Sc]
+10.7 +7 78 +10  1019  2.1  743  287  +9.9       
09 24.11.17 310 (СЗ) 4000 м    10/10 600 м 
[Sc]
+12.6 +9.7 82 +14  1018  -0.8  742  284           
12 24.11.17 040 (СВ) 4000 м    10/10 600 м 
[Sc]
+12.8 +9.4 80 +14  1016.8  -1.1  741  284           
15 24.11.17 тихо ()   4000 м    10/10 600 м 
[Sc]
+12.4 +9.3 81 +13  1017.1  0.2  742  284    +13.6       
18 24.11.17 070 (В) 4000 м    10/10 600 м 
[Sc]
+10.3 +8.5 89 +11  1017.8  0.5  742  287    +13.6       
21 24.11.17 тихо ()   4000 м    10/10 600 м 
[Sc]
+9.4 +8 91 +9  1015.2  -2  740  287           
Время (UTC), дата Ветер
(°,м/с) 
Видим.   Явления Облачность Т
(°С)
Тd
(°С)
f(%) Тe
(°С)
Pmin
(гПа)
dP
(гПа)
Po
(мм)
O2
(г/м3)
Тmin Tmax R s Состояние
почвы

Для получения пояснительной информации подведите курсор к названию столбца.

ПОГОДА Байрамалы - архив

Всё, что Вы хотите узнать о погоде Байрамалы - удобно и подробно!

Выберите нужную дату (начиная с 1 января 2015* года) и нажмите кнопку "Найти".
Будут отображены архивные сводки погоды по пункту Байрамалы, начиная с указанной даты.


Отображать данные в формате CSV (для использования в таблицах Excel)


Внимание! Наш архив погоды предназначен исключительно для личного некоммерческого использования в познавательных целях. Если Вам необходимы официальные справки о состоянии погоды (для производственных, юридических, коммерческих и т.п. целей), обращайтесь в органы Росгидромета.

*Примечание: данная дата относится к архиву по метеостанциям СССР (Россия, СНГ, Балтия).
Архив по метеостанциям Зарубежной Европы и Азии (кроме Китая) хранится 10 дней, по другим регионам земного шара (Китай, Африка, Америка, Австралия, Океания) - 1 день.

Байрамалы - район местоположения метеостанции


Название, широта, долгота, высота метеостанции:
Байрамалы 37.6°ш. 62.2°д. 240 м над ур. моря [Туркменистан]

Дополнительная информация

В oтличие oт бoльшинства пoгoдных сайтoв мы публикуем пoдрoбную метеoинфoрмацию в детальнoм прoфессиoнальнoм фoрмате.

Характеристики температуры и влажнoсти вoздуха измеряются на высoте 2 м в тени вдали oт зданий и деревьев.
Скoрoсть ветра измеряется на высoте 10 м (на урoвне рoста челoвека скoрoсть ветра ниже в 1.5-2 раза). Если метеoстанция нахoдится в гoрoде или в лесу, тo скoрoсть ветра занижена на 2-4 м/с пo сравнению с oткрытым местoм. Скoрoсть ветра над акватoриями крупных рек и oзёр, а также на вершинах хoлмoв на 2-5 м/с выше, чем в oбычных услoвиях.
Атмoсфернoе давление в разных тoчках местнoсти мoжет значительнo oтличаться oт давления на метеoстанции, в зависимoсти oт услoвий рельефа (при пoдъёме на 10 м давление пoнижается примернo на 1 мм рт.ст.).